Regional Weather Roundup
Issued by NWS

Home | Current Version | Previous Version | Text Only | Print | Product List | Glossary On
Versions: 1 2 3 4 5 6 7 8 9 10 11 12 13 14 15 16 17 18 19 20 21 22 23 24 25 26 27 28 29 30 31 32 33 34 35 36 37 38 39 40 41 42 43 44 45 46 47 48 49 50
000
ASUS43 KLSX 250607
RWRMO

WEATHER SUMMARY FOR MISSOURI
NATIONAL WEATHER SERVICE SPRINGFIELD MO
1200 AM CST THU DEC 25 2014

NOTE: "FAIR" INDICATES FEW OR NO CLOUDS BELOW 12,000 FEET WITH NO
       SIGNIFICANT WEATHER AND/OR OBSTRUCTIONS TO VISIBILITY.
       CURRENT SKY AND/OR WEATHER CONDITIONS ARE NOT AVAILABLE FOR
       CHILLICOTHE AND FARMINGTON.

MOZ001>031-035>038-043-044-053-054-250700-
...NORTHERN AND WESTERN MISSOURI...

CITY           SKY/WX    TMP DP  RH WIND       PRES   REMARKS
KANSAS CTY INT CLEAR     30  29  96 S14       29.79F WCI  19
6HR MIN TEMP:  28; 6HR MAX TEMP:  34;

KANSAS C DTWN  CLEAR     32  28  85 S8        29.81F WCI  25
6HR MIN TEMP:  31; 6HR MAX TEMP:  37;

LEE`S SUMMIT   CLEAR     32  28  85 S10       29.82F WCI  24
6HR MIN TEMP:  31; 6HR MAX TEMP:  35;

ST JOSEPH      CLEAR     29  27  92 S8        29.79S WCI  21
6HR MIN TEMP:  28; 6HR MAX TEMP:  34;

CHILLICOTHE      N/A     34  28  79 SW7       29.82F WCI  28
6HR MIN TEMP:  34; 6HR MAX TEMP:  37;

KIRKSVILLE     CLOUDY    33  30  88 SW8       29.81R WCI  26
6HR MIN TEMP:  33; 6HR MAX TEMP:  35; 6HR PCP:  0.01;


$$
MOZ066>068-077>081-088>096-101>105-250700-
...SOUTHWEST MISSOURI...

CITY           SKY/WX    TMP DP  RH WIND       PRES   REMARKS
SPRINGFIELD    CLEAR     31  27  85 S9        29.89F WCI  23
6HR MIN TEMP:  28; 6HR MAX TEMP:  37;

JOPLIN         CLEAR     32  28  85 S10       29.90S WCI  24
6HR MIN TEMP:  29; 6HR MAX TEMP:  36;


$$
MOZ032>034-039>042-045>050-055>058-069>072-250700-
...CENTRAL MISSOURI...

CITY           SKY/WX    TMP DP  RH WIND       PRES   REMARKS
COLUMBIA       CLOUDY    35  30  82 W20       29.86S WCI  24
6HR MIN TEMP:  35; 6HR MAX TEMP:  37; 6HR PCP: TRACE;

JEFFERSON CITY CLOUDY    37  29  72 W13       29.89S WCI  29
6HR MIN TEMP:  37; 6HR MAX TEMP:  38; 6HR PCP:  0.01;

ROLLA          CLOUDY    35  29  78 W12       29.86S WCI  27
6HR MIN TEMP:  35; 6HR MAX TEMP:  35;

SEDALIA        CLEAR     34  29  82 SW8       29.86F WCI  27
6HR MIN TEMP:  34; 6HR MAX TEMP:  38;

WHITEMAN AFB   CLEAR     30  28  90 S6        29.85F WCI  24
WARRENSBURG    CLEAR     32  28  86 S6        29.85S WCI  26
OSAGE BEACH    CLOUDY    36  27  69 SW7       29.89S WCI  30

$$
MOZ051-052-059>065-250700-
...EAST CENTRAL MISSOURI...

CITY           SKY/WX    TMP DP  RH WIND       PRES   REMARKS
ST LOUIS INTL  CLOUDY    37  34  87 W5        29.87R
6HR MIN TEMP:  38; 6HR MAX TEMP:  40; 6HR PCP:  0.01;

SPIRIT OF STL  CLOUDY    38  33  82 SW8       29.87R
6HR MIN TEMP:  37; 6HR MAX TEMP:  38; 6HR PCP:  0.01;

ST CHARLES     CLOUDY    37  32  82 W8        29.86R
6HR MIN TEMP:  37; 6HR MAX TEMP:  39;


$$
MOZ072>076-082>087-097>100-106>115-250700-
...SOUTH CENTRAL AND SOUTHEAST MISSOURI...

CITY           SKY/WX    TMP DP  RH WIND       PRES   REMARKS
CAPE GIRARDEAU CLOUDY    39  35  86 W8        29.93R
6HR MIN TEMP:  39; 6HR MAX TEMP:  41; 6HR PCP: TRACE;

FARMINGTON     CLOUDY    36  34  93 SW9       29.90R WCI  29
6HR MIN TEMP:  36; 6HR MAX TEMP:  37;

POPLAR BLUFF   CLOUDY    40  32  73 SW6       29.93F
6HR MIN TEMP:  39; 6HR MAX TEMP:  41;

WEST PLAINS    CLOUDY    36  28  73 W8        29.93R WCI  30
6HR MIN TEMP:  36; 6HR MAX TEMP:  38; 6HR PCP: TRACE;


$$


USA.gov is the U.S. government's official web portal to all federal, state and local government web resources and services.